Location: Holcomb Observatory and Planetarium
(39.8415°N, 86.1714°W)
Time: 13:04:33
(UTC-05:00)

ISS - Visible Passes

Search period start: 01 March 2017 00:00
Search period end: 11 March 2017 00:00
Orbit: 400 x 410 km, 51.6° (Epoch: 02 March)

Date Brightness Start Highest point End Pass type
(mag) Time Alt. Az. Time Alt. Az. Time Alt. Az.
01 Mar -0.7 06:03:52 10° S 06:06:17 19° SE 06:08:42 10° E visible
02 Mar -3.3 06:47:01 10° SW 06:50:19 85° NW 06:53:38 10° NE visible
03 Mar -2.4 05:56:05 19° SSW 05:58:10 47° SE 06:01:22 10° ENE visible
04 Mar -1.1 05:06:28 23° ESE 05:06:28 23° ESE 05:08:49 10° ENE visible
04 Mar -2.5 06:39:20 10° W 06:42:26 37° NNW 06:45:33 10° NE visible
05 Mar -3.3 05:49:21 46° W 05:50:09 67° NW 05:53:27 10° NE visible
06 Mar -1.3 04:59:26 28° ENE 04:59:26 28° ENE 05:01:12 10° ENE visible
06 Mar -1.6 06:32:06 10° WNW 06:34:39 21° NNW 06:37:17 10° NNE visible
07 Mar -2.3 05:42:03 31° NW 05:42:14 31° NNW 05:45:15 10° NE visible
08 Mar -0.8 04:51:56 20° NE 04:51:56 20° NE 04:53:08 10° NE visible
08 Mar -1.0 06:25:01 10° NW 06:26:57 14° NNW 06:28:53 10° NNE visible
09 Mar -1.4 05:34:23 19° NNW 05:34:25 19° NNW 05:36:52 10° NNE visible
10 Mar -0.4 04:44:07 14° NNE 04:44:07 14° NNE 04:44:49 10° NNE visible
10 Mar -0.7 06:18:04 10° NNW 06:19:17 11° N 06:20:30 10° NNE visible
